Location: Carole Heights
(41.1624°N, 111.9588°W)
Time: 10:24:44
(UTC+00:00)

ISS - Visible Passes

Search period start: 27 February 2021 00:00
Search period end: 09 March 2021 00:00
Orbit: 417 x 422 km, 51.6° (Epoch: 27 February)

Date Brightness Start Highest point End Pass type
(mag) Time Alt. Az. Time Alt. Az. Time Alt. Az.
27 Feb -0.8 11:37:00 14° NE 11:37:00 14° NE 11:37:39 10° NE visible
27 Feb -1.5 13:09:57 10° NW 13:11:56 15° N 13:14:02 10° NNE visible
28 Feb -1.7 12:24:20 18° NNW 12:24:20 18° NNW 12:26:37 10° NNE visible
01 Mar -0.8 11:38:41 13° NNE 11:38:41 13° NNE 11:39:15 10° NNE visible
01 Mar -1.3 13:12:29 10° NNW 13:14:19 14° N 13:16:09 10° NE visible
02 Mar -1.4 12:25:57 14° NNW 12:26:34 14° N 12:28:27 10° NNE visible
03 Mar -0.8 11:40:14 12° NNE 11:40:14 12° NNE 11:40:54 10° NNE visible
03 Mar -1.3 13:14:28 10° NNW 13:16:39 16° NNE 13:18:50 10° NE visible
04 Mar -1.3 12:27:29 12° NNW 12:28:53 14° N 12:30:50 10° NE visible
05 Mar -0.9 11:41:47 13° NNE 11:41:47 13° NNE 11:42:57 10° NE visible
05 Mar -1.8 13:16:02 10° NW 13:18:50 24° NNE 13:21:37 10° ENE visible
06 Mar -1.4 12:29:03 12° NNW 12:31:07 19° NNE 12:33:36 10° ENE visible
07 Mar -1.2 11:43:24 16° NNE 11:43:24 16° NNE 11:45:32 10° NE visible
07 Mar -2.8 13:17:31 10° NW 13:20:47 47° NNE 13:24:02 10° ESE visible
08 Mar -2.2 12:30:46 14° NNW 12:33:08 32° NNE 12:36:12 10° E visible
